Regional Weather Roundup
Issued by NWS

Home | Current Version | Previous Version | Text Only | Print | Product List | Glossary On
Versions: 1 2 3 4 5 6 7 8 9 10 11 12 13 14 15 16 17 18 19 20 21 22 23 24 25 26 27 28 29 30 31 32 33 34 35 36 37 38 39 40 41 42 43 44 45 46 47 48 49 50
000
ASUS43 KLSX 050310
RWRMO

WEATHER SUMMARY FOR MISSOURI
NATIONAL WEATHER SERVICE SPRINGFIELD MO
1000 PM CDT TUE AUG 04 2015

NOTE: "FAIR" INDICATES FEW OR NO CLOUDS BELOW 12,000 FEET WITH NO
       SIGNIFICANT WEATHER AND/OR OBSTRUCTIONS TO VISIBILITY.
       CURRENT SKY AND/OR WEATHER CONDITIONS ARE NOT AVAILABLE FOR
       CHILLICOTHE AND FARMINGTON.

MOZ001>031-035>038-043-044-053-054-050400-
...NORTHERN AND WESTERN MISSOURI...

CITY           SKY/WX    TMP DP  RH WIND       PRES   REMARKS
KANSAS CTY INT CLOUDY    71  69  93 NE5       29.97R
KANSAS C DTWN  CLOUDY    72  70  93 NE8       29.95R
LEE`S SUMMIT   CLOUDY    71  68  90 E5        29.96R
ST JOSEPH      CLOUDY    71  68  90 NE5       29.95S
CHILLICOTHE      N/A     73  68  84 CALM      30.01R
KIRKSVILLE     CLOUDY    72  67  84 E7        30.03R

$$
MOZ066>068-077>081-088>096-101>105-050400-
...SOUTHWEST MISSOURI...

CITY           SKY/WX    TMP DP  RH WIND       PRES   REMARKS
SPRINGFIELD    LGT RAIN  74  69  85 S3        30.01R
JOPLIN         LGT RAIN  74  72  93 E3        30.01R

$$
MOZ032>034-039>042-045>050-055>058-069>072-050400-
...CENTRAL MISSOURI...

CITY           SKY/WX    TMP DP  RH WIND       PRES   REMARKS
COLUMBIA       TSTM      70  67  90 NW14      30.04R
JEFFERSON CITY CLOUDY    73  66  78 NW12G20   30.00R
ROLLA          CLOUDY    71  62  73 CALM      30.01R
SEDALIA        CLOUDY    70  66  87 E8        30.02R
WHITEMAN AFB   PTCLDY    70  68  94 SE6       29.98R
WARRENSBURG    MOCLDY    70  66  88 E5        29.98R
OSAGE BEACH    MOCLDY    70  66  88 NW3       30.01F

$$
MOZ051-052-059>065-050400-
...EAST CENTRAL MISSOURI...

CITY           SKY/WX    TMP DP  RH WIND       PRES   REMARKS
ST LOUIS INTL  CLOUDY    82  70  66 E7        29.99R
SPIRIT OF STL  CLOUDY    77  74  90 CALM      29.97R
ST CHARLES     CLOUDY    76  70  82 NE9       29.98R

$$
MOZ072>076-082>087-097>100-106>115-050400-
...SOUTH CENTRAL AND SOUTHEAST MISSOURI...

CITY           SKY/WX    TMP DP  RH WIND       PRES   REMARKS
CAPE GIRARDEAU CLOUDY    78  71  79 SE6       29.98R
FARMINGTON     CLOUDY    75  72  88 CALM      30.04S
POPLAR BLUFF   CLOUDY    81  77  88 CALM      29.96S
WEST PLAINS    CLOUDY    75  65  70 E3        30.04R

$$



USA.gov is the U.S. government's official web portal to all federal, state and local government web resources and services.